Regional Weather Roundup
Issued by NWS

Home | Current Version | Previous Version | Graphics & Text | Print | Product List | Glossary On
Versions: 1 2 3 4 5 6 7 8 9 10 11 12 13 14 15 16 17 18 19 20 21 22 23 24 25 26 27 28 29 30 31 32 33 34 35 36 37 38 39 40 41 42 43 44 45 46 47 48 49 50
884
ASUS43 KFSD 312010
RWRSD

WEATHER ROUNDUP FOR SOUTH DAKOTA
NATIONAL WEATHER SERVICE SIOUX FALLS SD
300 PM CDT WED AUG 31 2016

NOTE: "FAIR" INDICATES FEW OR NO CLOUDS BELOW 12,000 FEET WITH NO
SIGNIFICANT WEATHER AND/OR OBSTRUCTIONS TO VISIBILITY.


SDZ001>005-009-010-012>017-312100-
NORTHWEST AND NORTH CENTRAL SOUTH DAKOTA

CITY           SKY/WX    TMP DP  RH WIND       PRES   REMARKS
BUFFALO          N/A     89  49  25 SE31G40   30.05F
FAITH            N/A     86  57  37 S23G30    30.16F
MOBRIDGE       SUNNY     89  57  33 SE12      30.14F
$$

SDZ012>016-024>037-041>051-057-063-072>074-312100-
SOUTHWEST AND SOUTH CENTRAL SOUTH DAKOTA

CITY           SKY/WX    TMP DP  RH WIND       PRES   REMARKS
RAPID CTY ARPT SUNNY     83  56  39 S18G28    30.19F
PIERRE         SUNNY     85  59  41 S10       30.15F
CUSTER         MOSUNNY   73  51  46 SE15G23   30.33S
PHILIP         SUNNY     86  58  38 S14G21    30.17F
PINE RIDGE     MOSUNNY   83  58  42 SE16G25   30.21F
WINNER         FAIR      85  65  51 SE12      30.19F
$$

SDZ004>011-016>023-039-040-312100-
NORTHEAST SOUTH DAKOTA

CITY           SKY/WX    TMP DP  RH WIND       PRES   REMARKS
ABERDEEN       CLOUDY    79  60  52 S7        30.20F
WATERTOWN      SUNNY     80  54  40 W6        30.22S
BROOKINGS      SUNNY     79  58  48 VRB6      30.21F
SISSETON         N/A     81  56  42 CALM      30.20F
$$

SDZ017-020-022-023-036>040-048>070-312100-
SOUTHEAST SOUTH DAKOTA

CITY           SKY/WX    TMP DP  RH WIND       PRES   REMARKS
SIOUX FALLS    MOSUNNY   83  56  39 E6        30.20F
HURON          MOSUNNY   82  63  52 W6        30.19S
CHAMBERLAIN    PTSUNNY   84  68  57 SE5       30.19F
MITCHELL       MOSUNNY   83  59  44 VRB5      30.20F
YANKTON        MOSUNNY   81  57  44 E8        30.18F
$$

ABBREVIATIONS USED IN REMARKS
   TC - TEMPERATURE IN CELSIUS
  WCI - WIND CHILL INDEX
   HX - HEAT INDEX
  VSB - VISIBILITY





USA.gov is the U.S. government's official web portal to all federal, state and local government web resources and services.